704  
ASUS43 KFGF 161231  
RWRFGF  
PRAIRIE TO PINES WEATHER ROUNDUP  
NATIONAL WEATHER SERVICE EASTERN NORTH DAKOTA/GRAND FORKS ND  
700 AM CDT TUE JUL 16 2019  
 
**SATELLITE DATA USED TO AUGMENT SKY COVER AT AUTOMATED STATIONS**  
***** WEATHER ACROSS EASTERN NORTH DAKOTA *****  
 
CITY SKY/WX TMP DP RH WIND PRES REMARKS
 
GRAND FORKS CLOUDY 64 60 87 W5 29.86R  
6HR MIN TEMP: 61; 6HR MAX TEMP: 65;  
 
GRAND FRKS AFB FAIR 64 61 93 NW7 29.88R  
GRAND FRKS NWS N/A 66 61 84 NW6 29.85R  
DEVILS LAKE FAIR 63 60 90 W5 29.92R  
6HR MIN TEMP: 61; 6HR MAX TEMP: 67;  
 
FARGO FAIR 69 65 86 NW3 29.88R  
WAHPETON ARPT PTSUNNY 68 64 88 CALM 29.88S  

 
 
***** WEATHER ACROSS CENTRAL AND WESTERN NORTH DAKOTA *****  
 
CITY SKY/WX TMP DP RH WIND PRES REMARKS
 
BISMARCK FAIR 67 58 72 W3 29.93S  
6HR MIN TEMP: 66; 6HR MAX TEMP: 73;  
 
MINOT FAIR 61 58 90 SW5 29.92S  
6HR MIN TEMP: 60; 6HR MAX TEMP: 66;  
 
JAMESTOWN FAIR 65 62 90 CALM 29.91R  
6HR MIN TEMP: 62; 6HR MAX TEMP: 68;  
 
MINOT AFB FAIR 57 56 95 CALM 29.91S  
GARRISON N/A 59 57 93 NW3 29.93S  
WILLISTON FAIR 59 58 96 CALM 29.94S  
6HR MIN TEMP: 58; 6HR MAX TEMP: 65;  
 
DICKINSON FAIR 62 59 90 E5 29.94F  
6HR MIN TEMP: 61; 6HR MAX TEMP: 65;  
 
HETTINGER FAIR 60 59 96 CALM 29.97R  
6HR MIN TEMP: 58; 6HR MAX TEMP: 70; 6HR PCP: TRACE;  
 

 
 
***** OTHER AIRPORT OBSERVATIONS IN OUR AREA *****  
 
CITY SKY/WX TMP DP RH WIND PRES REMARKS
 
WALHALLA FAIR 66 66 100 CALM 29.88R  
GRAFTON AIRPOR FAIR 66 63 88 NW6 29.90R  
VALLEY CITY AR FAIR 64 64 100 N5 29.93S  
CANDO FAIR 61 61 100 CALM 29.94R  
CAVALIER APRT FAIR 66 61 82 NW6 29.88R  
GWINNER N/A 68 66 94 N6 29.90S  
SHEYENNE NWR N/A 65 63 94 CALM 29.95S  
ROLLA FAIR 63 63 100 W3 29.94R  
***** THE ABOVE OBSERVATIONS ARE NON NWS ARE NOT QUALITY  
CONTROLLED AND MAY MIS-REPORT RAIN FOR SNOW...  

 
 
***** WEATHER ACROSS NORTHERN MINNESOTA *****  
 
CITY SKY/WX TMP DP RH WIND PRES REMARKS
 
FLAG ISLAND N/A 66 61 82 NW7 29.84R  
WARROAD FAIR 66 63 88 W3 29.87R  
ROSEAU FAIR 64 61 88 CALM 29.87R  
HALLOCK FAIR 64 63 94 CALM 29.87R  
THF RVR FALLS FAIR 63 61 93 NW3 29.89R  
6HR MIN TEMP: 62; 6HR MAX TEMP: 68;  
 
BAUDETTE FAIR 64 62 93 W6 29.85R  
6HR MIN TEMP: 62; 6HR MAX TEMP: 67;  
 
WASKISH FAIR 66 63 88 CALM 29.86R  
CROOKSTON FAIR 64 63 94 CALM 29.88R  
STEPHEN NDAWN N/A 63 63 100 NW1 N/A  
GREENBUSH NDAW N/A 63 63 100 SW1 N/A  

 
***** WEATHER ACROSS CENTRAL AND WEST MINNESOTA *****  
 
CITY SKY/WX TMP DP RH WIND PRES REMARKS
 
FOSSTON FAIR 63 61 94 CALM 29.89S  
BEMIDJI FAIR 66 62 87 W7 29.88R  
6HR MIN TEMP: 59; 6HR MAX TEMP: 68;  
 
PARK RAPIDS FAIR 64 62 93 NW3 29.88R  
6HR MIN TEMP: 61; 6HR MAX TEMP: 69;  
 
ELBOW LAKE NOT AVBL  
WADENA FAIR 64 64 100 CALM 29.89R  
DETROIT LAKES FAIR 68 63 83 CALM 29.91R  
MOORHEAD FAIR 66 64 94 N6 29.89R  
FERGUS FALLS FAIR 70 64 83 CALM 29.88S  
MORRIS MN FAIR 70 70 100 CALM 29.83S  
STAPLES FAIR 64 64 100 CALM 29.89R  

 
***** WEATHER ELSEWHERE ACROSS MINNESOTA *****  
 
CITY SKY/WX TMP DP RH WIND PRES REMARKS
 
DULUTH FAIR 71 64 78 NW6 29.84R  
6HR MIN TEMP: 67; 6HR MAX TEMP: 72;  
 
INTRNTL FALLS FAIR 64 63 96 CALM 29.83R  
6HR MIN TEMP: 59; 6HR MAX TEMP: 65;  
 
ELY FAIR 66 64 94 W3 29.83R  
CLOQUET FAIR 70 64 83 W6 29.86R  
WHEATON FAIR 70 64 83 CALM 29.90R  
BRAINERD FAIR 69 65 86 CALM 29.87R  
6HR MIN TEMP: 66; 6HR MAX TEMP: 71;  
 
HIBBING FAIR 62 62 100 CALM 29.84R  
6HR MIN TEMP: 55; 6HR MAX TEMP: 63;  
 
ALEXANDRIA FAIR 75 64 68 N5 29.90R  
6HR MIN TEMP: 73; 6HR MAX TEMP: 76;  
 
SAINT CLOUD FAIR 70 68 93 CALM 29.85S  
6HR MIN TEMP: 66; 6HR MAX TEMP: 72;  
 
MINNEAPOLIS PTSUNNY 72 64 76 W3 29.85S  
6HR MIN TEMP: 71; 6HR MAX TEMP: 72;  
 

 
 
***** WEATHER ACROSS SOUTH DAKOTA *****  
 
CITY SKY/WX TMP DP RH WIND PRES REMARKS
 
SIOUX FALLS CLOUDY 75 69 81 W6 29.86R  
6HR MIN TEMP: 73; 6HR MAX TEMP: 78; 6HR PCP: TRACE;  
 
BROOKINGS FAIR 69 67 93 N6 29.89S  
WATERTOWN FAIR 68 65 90 N5 29.90R  
6HR MIN TEMP: 66; 6HR MAX TEMP: 72;  
 
HURON LGT RAIN 71 69 93 NW6 29.90R FOG  
6HR MIN TEMP: 71; 6HR MAX TEMP: 76; 6HR PCP: TRACE;  
 
SISSETON N/A 68 67 96 NW5 29.88R  
ABERDEEN FAIR 69 62 78 N3 29.90S  
6HR MIN TEMP: 68; 6HR MAX TEMP: 73;  
 
MITCHELL FAIR 72 66 81 NW14G22 29.88S  
PIERRE MOCLDY 69 66 90 E7 29.89R  
6HR MIN TEMP: 68; 6HR MAX TEMP: 74; 6HR PCP: 0.01;  
 
MOBRIDGE FAIR 67 62 84 CALM 29.91S  
RAPID CITY FAIR 57 54 89 CALM 29.98F  
6HR MIN TEMP: 56; 6HR MAX TEMP: 64;  
 

 
 
***** SOME WEATHER IN NEARBY STATES *****  
 
CITY SKY/WX TMP DP RH WIND PRES REMARKS
 
GLASGOW MT CLOUDY 67 59 75 E12 29.90F  
6HR MIN TEMP: 65; 6HR MAX TEMP: 68; 6HR PCP: 0.01;  
 
GREAT FALLS MT FAIR 59 50 72 NW9 29.97R  
6HR MIN TEMP: 58; 6HR MAX TEMP: 65;  
 
CHEYENNE WY FAIR 55 51 86 W8 30.14R  
6HR MIN TEMP: 54; 6HR MAX TEMP: 62;  
 
SCOTTSBLUFF NE FAIR 62 50 65 SE8 30.02S  
6HR MIN TEMP: 62; 6HR MAX TEMP: 65;  
 
OMAHA NE LGT RAIN 72 70 93 VRB6 29.92F  
6HR MIN TEMP: 71; 6HR MAX TEMP: 80; 6HR PCP: 0.53;  
 
DES MOINES IA PTSUNNY 70 66 87 S8 29.88F  
6HR MIN TEMP: 69; 6HR MAX TEMP: 73;  
 
DAVENPORT IA CLOUDY 72 68 87 S6 29.91S  
6HR MIN TEMP: 69; 6HR MAX TEMP: 72;  
 
CHICAGO IL PTSUNNY 72 68 87 S10 29.93R  
6HR MIN TEMP: 71; 6HR MAX TEMP: 76; 6HR PCP: TRACE;  
 
EAU CLAIRE WI FAIR 67 64 90 SW5 29.86R  
6HR MIN TEMP: 64; 6HR MAX TEMP: 67;  
 
LA CROSSE WI FAIR 73 68 84 S9 29.88R  
6HR MIN TEMP: 69; 6HR MAX TEMP: 73; 6HR PCP: 0.02;  
 

 
 
***** SOME NATIONAL WEATHER *****  
 
CITY SKY/WX TMP DP RH WIND PRES REMARKS
 
LA GUARDIA NY FAIR 77 57 50 NE5 30.07R  
6HR MIN TEMP: 73; 6HR MAX TEMP: 77;  
 
RALEIGH NC PTSUNNY 74 73 97 CALM 30.12R  
6HR MIN TEMP: 71; 6HR MAX TEMP: 74;  
 
ATLANTA GA FAIR 78 70 76 SW5 30.17R  
6HR MIN TEMP: 77; 6HR MAX TEMP: 80;  
 
NEW ORLEANS LA MOCLDY 81 78 91 S6 30.09R  
6HR MIN TEMP: 81; 6HR MAX TEMP: 83;  
 
OKLAHOMA CITY FAIR 70 70 100 S5 29.92S  
6HR MIN TEMP: 69; 6HR MAX TEMP: 75;  
 
ALBUQUERQUE NM MOCLDY 76 51 41 CALM 30.12R  
6HR MIN TEMP: 75; 6HR MAX TEMP: 80;  
 
SALT LAKE CITY FAIR 70 41 34 E7 29.95R  
6HR MIN TEMP: 69; 6HR MAX TEMP: 78;  
 
LOS ANGELES CA FAIR  
 
CLICK HERE TO GO TO PREVIOUS BULLETINS.

The Nexlab ND Page
The Nexlab MN Page Main Text Page